Wind_Speed
24 25 25 25 25 25 24 23 23 23 23 23 23 23 22 22 22 21 20 20 20 19 19 19 19 19 18 17 17 17 17 16 16 15 15 14 13 13 13 13 14 13 13 12 12 11 11 10 10
25 25 26 27 27 26 25 25 24 24 24 25 25 25 24 24 24 23 22 22 22 21 21 20 20 20 20 20 19 19 18 18 18 18 17 17 16 15 15 15 14 15 15 14 13 12 12 12 11
26 26 28 28 28 26 26 26 27 26 26 27 27 27 27 26 26 25 24 24 24 24 23 23 22 22 22 21 21 21 20 20 20 20 19 18 18 18 17 17 16 15 16 15 15 14 13 13 12
28 29 30 30 28 27 28 28 29 28 28 29 29 29 29 29 28 27 26 26 26 26 26 25 25 25 24 24 23 22 22 22 21 21 21 20 19 19 19 18 18 17 16 16 16 15 15 14 14
29 30 31 31 29 28 29 30 31 30 31 31 32 32 31 31 30 30 29 29 28 28 28 27 27 27 27 26 25 24 24 24 23 23 22 22 21 21 20 20 19 19 18 17 17 17 16 16 15
30 31 32 32 30 30 31 32 33 33 33 33 34 34 33 33 33 32 31 31 31 31 30 29 29 29 28 28 27 27 26 26 25 24 24 23 23 23 22 22 21 21 20 19 19 18 17 17 16
32 33 33 32 32 31 32 34 34 35 34 34 35 35 35 34 34 34 34 32 33 33 33 32 31 31 30 29 29 29 28 28 27 27 26 25 25 24 24 24 23 22 22 21 21 20 19 18 18
33 34 34 34 34 33 34 35 36 37 36 36 36 36 35 36 36 36 35 35 34 35 34 34 34 33 32 32 31 30 30 30 30 29 28 28 27 26 26 26 25 24 23 23 22 22 21 20 19
35 36 35 35 35 36 36 37 37 38 38 38 37 36 36 36 37 37 37 37 36 36 36 36 36 36 35 34 33 33 32 31 31 30 29 29 29 28 28 27 27 26 25 24 24 23 22 21 20
36 36 35 36 37 37 37 38 38 39 39 40 40 39 37 37 38 38 39 39 38 38 38 38 38 38 37 36 36 34 33 33 33 32 31 30 30 30 29 29 28 28 27 26 25 24 23 22 22
37 37 36 37 38 39 39 39 40 41 41 41 41 41 40 40 39 40 40 40 40 39 39 40 39 39 39 38 37 36 36 35 35 34 33 33 32 32 31 30 30 29 29 28 27 26 25 24 23
37 37 37 38 38 39 40 40 41 42 42 42 43 42 42 41 41 40 40 40 41 41 40 40 40 40 40 39 38 37 37 37 37 36 34 34 34 34 34 33 32 31 31 30 29 28 27 26 25
37 37 38 39 39 40 41 41 41 41 42 43 43 43 42 41 40 40 40 40 41 42 41 41 42 41 41 40 40 39 39 38 38 38 37 36 35 35 35 35 34 33 32 32 31 30 29 28 27
38 38 38 39 40 41 42 42 42 41 42 43 43 43 42 42 42 42 41 41 41 42 41 41 42 42 42 41 41 41 40 39 39 39 39 39 37 36 36 36 36 36 34 34 34 33 31 31 30
38 39 39 40 41 41 42 41 41 41 42 42 43 43 43 43 42 42 41 41 42 42 41 42 43 42 42 42 42 41 41 40 40 40 41 40 39 38 37 37 37 36 36 36 36 35 33 33 32
37 38 39 39 39 40 41 40 39 41 41 41 42 43 43 43 42 42 42 42 43 43 43 44 44 43 42 42 42 42 41 41 41 42 41 41 40 39 39 39 39 38 38 38 37 37 36 35 35
37 37 38 38 38 39 40 40 39 41 41 41 41 42 43 42 42 43 42 43 43 44 45 45 44 44 43 43 43 42 42 43 43 43 43 42 42 41 41 41 40 40 40 40 40 39 39 38 37
36 37 37 37 37 37 38 38 38 39 41 41 41 42 43 43 43 43 43 44 44 44 45 45 45 45 45 45 45 44 44 45 44 44 44 44 44 43 43 42 42 41 41 41 41 41 41 40 40
35 35 35 36 37 37 37 37 38 39 40 41 41 42 43 44 45 44 43 44 45 45 46 47 47 47 47 47 47 46 46 46 45 44 45 46 45 45 45 44 43 43 42 42 42 42 42 41 41
34 34 34 35 36 37 38 37 38 39 39 40 41 42 43 44 45 45 45 45 45 46 46 47 48 49 49 49 48 48 47 47 47 47 46 46 46 46 46 46 45 44 44 43 43 43 43 43 43
33 33 33 34 35 36 38 38 38 37 38 39 41 41 42 44 45 46 46 46 46 47 47 47 48 50 50 50 50 50 49 49 50 50 49 48 48 48 49 48 46 46 46 45 45 44 44 44 44
32 33 33 33 34 36 37 39 37 37 37 38 38 40 41 43 44 45 46 46 47 47 48 49 49 50 51 52 52 52 51 50 50 50 50 51 50 51 50 50 49 48 47 47 47 47 46 46 45
31 32 33 34 34 36 36 39 38 37 37 38 38 39 40 41 43 44 46 46 47 47 49 50 50 50 52 53 53 52 52 52 52 52 52 52 53 53 53 52 52 51 48 48 49 49 49 48 47
31 32 34 34 35 37 35 37 38 37 37 37 38 39 39 39 41 42 44 46 47 47 48 50 50 50 51 53 54 54 54 53 53 54 54 54 54 55 55 54 53 52 51 51 51 51 51 50 49
31 31 32 34 35 36 36 37 38 37 36 36 37 39 40 40 40 41 42 44 47 47 48 50 51 50 51 53 54 55 55 55 55 54 55 56 56 56 56 55 55 54 53 53 52 51 52 51 51
29 30 31 33 34 35 35 37 37 36 36 36 36 37 39 39 40 40 41 43 45 47 48 50 51 51 51 52 54 54 55 55 55 55 55 55 56 56 56 56 56 55 55 54 53 52 53 53 52
29 30 32 33 34 34 34 35 34 33 33 34 34 35 36 38 39 40 41 42 43 45 47 48 49 50 50 51 52 53 52 53 54 55 55 55 55 55 55 57 57 56 55 55 54 55 55 53 53
30 30 30 32 33 34 33 33 33 31 31 31 32 33 34 35 36 38 39 41 42 43 44 47 47 48 49 50 51 52 53 52 53 54 54 55 55 55 55 56 56 55 56 56 55 55 55 55 54
29 29 29 31 32 33 34 33 32 32 32 32 31 32 33 34 35 36 37 39 40 41 43 44 46 47 48 49 50 50 52 53 52 53 54 54 55 55 56 55 55 55 55 56 56 56 56 56 55
28 28 29 30 31 32 33 31 30 31 31 32 32 33 33 34 33 34 35 37 39 40 41 42 44 46 47 48 48 49 50 51 52 52 53 53 54 54 54 54 55 55 55 55 56 56 56 57 56
Wind_Direction
253 252 251 250 249 250 251 251 249 247 246 245 245 246 246 245 246 247 246 246 245 243 242 241 243 243 243 244 244 245 246 248 250 251 253 253 250 248 247 249 245 243 244 244 244 242 241 241 238
254 253 252 251 251 252 252 253 252 250 248 247 247 247 247 246 246 248 246 245 245 245 244 243 244 245 245 245 245 245 247 248 249 250 251 252 251 250 248 249 247 244 244 245 245 244 243 243 240
255 254 255 254 253 253 253 253 253 252 250 249 248 248 248 248 247 248 247 247 246 246 246 245 244 245 245 245 246 246 246 247 249 249 250 251 251 251 250 249 249 246 246 245 245 244 244 244 242
258 258 257 257 256 254 254 254 254 253 252 252 251 249 249 248 247 247 247 247 247 247 247 246 245 245 245 245 246 246 247 247 248 249 250 250 250 250 249 249 249 247 246 246 245 245 246 246 244
260 259 260 259 258 255 254 254 254 254 253 253 252 251 249 248 248 248 247 247 248 248 248 247 247 247 246 245 246 246 247 248 248 249 250 250 250 249 248 248 248 248 247 245 245 246 247 247 246
262 261 261 261 259 255 255 255 255 255 254 254 254 253 251 251 250 248 247 246 247 248 249 248 247 247 247 246 246 246 246 247 248 249 249 249 248 247 247 247 248 248 247 246 245 245 246 247 248
264 264 263 261 259 256 255 255 256 256 255 254 255 254 253 251 250 250 248 247 247 247 248 248 247 247 247 247 247 247 247 247 248 248 249 249 248 247 247 246 247 247 247 246 246 245 245 246 246
265 265 264 262 260 257 256 256 255 255 255 254 254 254 253 252 251 250 249 248 247 246 247 247 247 246 247 247 248 248 248 248 248 248 248 248 248 248 247 247 246 246 246 246 247 245 244 244 245
266 265 264 263 261 259 257 257 257 257 256 255 254 254 253 251 251 250 249 248 247 246 246 246 246 246 246 246 246 247 248 248 248 248 247 247 247 247 247 246 245 246 246 246 246 246 244 244 244
267 266 265 264 262 260 258 258 257 256 255 255 254 254 252 252 251 251 250 248 247 246 246 246 247 247 246 245 245 245 246 247 247 247 248 247 247 247 246 245 245 246 246 246 245 245 245 244 244
269 268 266 264 262 261 258 257 257 256 255 255 255 255 253 252 252 252 252 250 248 246 246 246 246 246 246 245 245 245 245 246 246 246 246 246 246 246 246 246 246 246 246 247 246 244 245 245 245
269 267 266 264 262 260 259 258 256 255 255 255 255 255 253 253 252 251 251 251 249 248 247 246 246 246 246 246 246 246 245 245 246 246 246 246 246 246 246 247 247 247 246 246 247 246 245 245 246
270 267 265 264 263 260 259 258 257 255 255 255 255 255 254 253 251 251 250 250 248 248 249 248 247 247 247 247 246 247 246 245 246 246 245 245 246 246 246 246 246 247 246 245 246 246 246 246 247
270 269 267 265 263 262 260 258 257 256 256 256 255 253 253 252 251 251 251 250 248 247 249 250 249 248 248 247 246 246 245 245 244 245 245 245 246 246 246 246 246 246 246 245 245 246 246 246 247
271 269 268 265 263 262 260 258 257 257 257 256 255 253 252 251 251 251 251 250 248 247 248 248 248 247 247 246 245 245 244 244 244 244 244 244 244 245 245 246 246 246 246 246 245 245 246 246 247
272 271 269 266 264 262 261 259 257 257 257 256 254 253 251 250 250 251 250 249 249 248 249 248 248 245 245 245 244 244 244 244 243 244 244 244 243 244 245 245 245 245 246 247 247 247 247 248 248
273 272 270 266 263 262 261 260 258 257 256 255 254 252 250 250 250 250 250 249 248 249 249 248 246 245 244 244 245 244 244 244 244 244 244 244 244 244 245 245 246 246 246 247 248 247 247 248 248
274 272 269 266 264 262 261 260 259 257 255 254 253 251 250 249 250 249 249 249 249 249 248 247 245 245 245 244 245 245 244 244 245 244 244 245 245 245 245 245 246 247 248 248 247 246 248 248 249
273 273 272 268 266 264 262 262 260 258 257 254 253 252 250 250 251 250 249 249 249 248 247 246 246 246 246 246 246 246 246 245 246 246 246 245 245 245 245 246 247 247 248 248 246 246 248 248 249
271 271 270 268 266 264 263 262 261 259 257 255 254 253 253 252 251 251 250 249 248 247 247 247 247 246 247 247 246 246 245 245 246 246 246 246 245 245 245 246 245 247 247 247 247 248 249 249 250
271 271 270 269 267 265 264 262 261 260 259 256 255 255 254 253 252 252 251 249 248 246 247 247 248 247 246 246 246 247 247 246 246 246 246 246 245 246 245 245 245 247 247 247 249 249 250 251 253
272 271 270 269 267 266 265 265 262 261 260 258 257 257 256 254 253 252 251 249 248 247 247 247 247 248 247 247 247 247 247 247 248 248 248 246 246 246 246 246 246 246 246 248 250 250 251 252 253
274 273 271 269 268 267 266 267 264 263 261 260 259 258 256 255 254 252 251 250 248 247 247 247 247 248 248 248 248 247 247 247 248 247 248 247 246 246 247 246 246 245 246 248 249 250 250 252 253
274 273 272 270 268 266 267 268 267 265 264 263 261 259 257 256 255 254 253 251 249 248 247 247 247 248 248 248 247 247 247 247 248 247 247 247 246 246 247 246 244 245 247 248 249 249 249 250 251
278 276 275 271 269 268 269 268 269 268 266 265 263 260 258 257 256 255 254 252 249 249 248 247 247 247 248 248 247 247 247 247 248 248 247 246 246 246 246 246 245 245 246 248 248 248 248 249 251
281 278 276 275 275 274 272 271 271 270 269 267 265 263 261 259 258 257 255 253 252 250 250 248 248 247 247 247 247 247 246 246 247 247 246 245 246 246 246 246 244 245 246 247 247 247 248 248 250
284 281 278 277 277 276 273 272 271 270 268 267 266 265 263 261 260 259 258 256 254 253 251 250 248 247 247 246 247 246 246 245 246 246 246 245 244 244 244 245 244 244 246 247 248 248 248 249 250
286 284 281 278 277 278 276 272 273 271 270 270 269 267 265 263 262 260 259 258 256 254 253 250 249 247 247 247 246 246 245 245 246 246 246 245 244 243 243 243 244 245 246 246 247 248 248 249 250
287 284 283 280 277 278 278 276 274 274 273 272 271 269 266 265 263 261 260 258 257 256 254 253 251 249 248 248 248 247 246 246 246 247 246 245 244 244 244 243 244 245 246 247 248 249 250 250 251
287 286 284 281 279 277 279 280 278 276 273 272 271 269 267 265 263 263 261 259 257 256 255 255 254 252 250 249 248 248 247 247 246 247 246 245 244 243 243 243 244 246 246 247 248 249 251 251 252
Height
5813 5814 5815 5816 5817 5818 5819 5821 5822 5823 5824 5824 5825 5826 5827 5828 5830 5833 5832 5832 5833 5834 5835 5837 5838 5838 5839 5841 5842 5843 5843 5844 5845 5846 5847 5847 5848 5848 5848 5849 5850 5850 5851 5852 5852 5853 5853 5854 5854
5808 5809 5811 5811 5811 5812 5815 5816 5817 5818 5819 5819 5820 5821 5822 5823 5825 5826 5827 5827 5829 5830 5832 5833 5834 5835 5836 5837 5838 5839 5840 5841 5842 5843 5844 5845 5845 5846 5846 5847 5847 5848 5849 5850 5850 5851 5852 5852 5853
5803 5804 5805 5805 5806 5808 5810 5811 5812 5812 5813 5814 5815 5815 5817 5818 5820 5821 5822 5823 5824 5826 5827 5829 5830 5831 5832 5833 5835 5836 5837 5838 5839 5840 5841 5842 5842 5843 5844 5844 5845 5845 5846 5847 5848 5849 5849 5850 5851
5798 5799 5799 5800 5801 5803 5804 5805 5805 5806 5807 5808 5809 5810 5811 5813 5814 5815 5816 5818 5819 5821 5822 5824 5825 5826 5828 5829 5831 5832 5833 5834 5835 5836 5837 5838 5839 5840 5841 5841 5842 5843 5844 5845 5846 5846 5847 5848 5849
5792 5792 5792 5793 5795 5797 5798 5799 5799 5800 5800 5801 5802 5803 5804 5806 5807 5809 5810 5812 5814 5815 5817 5819 5820 5822 5823 5825 5826 5828 5829 5830 5831 5832 5833 5834 5835 5836 5837 5838 5839 5840 5841 5842 5843 5844 5845 5846 5846
5785 5785 5786 5786 5789 5791 5791 5791 5792 5793 5793 5794 5795 5796 5797 5799 5800 5802 5804 5806 5807 5809 5811 5813 5815 5816 5818 5820 5821 5823 5824 5825 5827 5828 5829 5830 5831 5832 5833 5834 5835 5836 5837 5839 5840 5841 5842 5843 5844
5779 5778 5778 5780 5782 5783 5784 5783 5783 5784 5785 5787 5787 5788 5790 5792 5793 5795 5797 5799 5800 5802 5804 5806 5808 5810 5812 5814 5816 5817 5819 5820 5822 5823 5824 5826 5827 5828 5829 5830 5831 5832 5834 5835 5836 5837 5838 5839 5840
5770 5770 5770 5772 5774 5775 5776 5775 5775 5776 5777 5778 5779 5780 5782 5784 5785 5786 5789 5791 5793 5795 5797 5799 5802 5804 5806 5808 5809 5811 5813 5815 5816 5817 5819 5821 5822 5823 5824 5826 5827 5828 5829 5831 5832 5833 5834 5836 5837
5762 5762 5763 5765 5766 5767 5767 5766 5767 5767 5768 5769 5770 5772 5774 5775 5776 5778 5780 5782 5785 5787 5790 5792 5794 5796 5799 5801 5803 5805 5807 5808 5810 5811 5813 5815 5817 5818 5819 5821 5822 5823 5825 5826 5828 5829 5830 5832 5833
5753 5753 5755 5756 5756 5757 5757 5757 5757 5758 5759 5760 5761 5762 5764 5766 5768 5769 5771 5774 5776 5779 5781 5783 5786 5788 5790 5793 5795 5797 5800 5802 5803 5805 5807 5809 5810 5812 5814 5815 5817 5819 5820 5822 5823 5824 5826 5827 5829
5743 5744 5745 5745 5745 5745 5746 5747 5747 5748 5749 5751 5752 5753 5755 5756 5758 5760 5762 5764 5767 5769 5772 5774 5777 5779 5782 5785 5787 5789 5792 5794 5796 5798 5800 5802 5804 5806 5807 5809 5811 5813 5815 5816 5818 5820 5821 5823 5824
5734 5735 5734 5734 5734 5735 5735 5736 5737 5738 5740 5740 5741 5743 5744 5746 5748 5750 5753 5755 5757 5760 5762 5765 5768 5770 5773 5776 5778 5781 5784 5786 5788 5790 5793 5795 5797 5799 5801 5803 5805 5807 5809 5811 5813 5814 5816 5817 5819
5724 5724 5724 5723 5723 5724 5724 5724 5725 5727 5728 5729 5730 5732 5734 5736 5738 5740 5743 5745 5747 5750 5753 5756 5758 5761 5764 5766 5769 5772 5774 5777 5780 5782 5784 5787 5789 5792 5794 5796 5798 5800 5802 5805 5807 5808 5810 5812 5814
5714 5713 5712 5712 5713 5713 5713 5714 5714 5717 5717 5718 5719 5721 5723 5725 5728 5730 5732 5735 5737 5740 5743 5746 5748 5751 5754 5756 5759 5762 5764 5767 5770 5773 5775 5777 5781 5783 5786 5788 5791 5793 5795 5798 5800 5801 5803 5806 5808
5702 5702 5701 5701 5701 5701 5701 5702 5704 5706 5706 5707 5708 5710 5712 5715 5717 5720 5722 5724 5727 5730 5733 5735 5738 5740 5743 5746 5749 5752 5755 5757 5760 5762 5765 5768 5772 5775 5778 5780 5783 5785 5788 5790 5792 5794 5796 5799 5801
5690 5690 5690 5691 5690 5689 5690 5692 5694 5693 5694 5696 5698 5699 5701 5704 5706 5709 5712 5714 5716 5719 5722 5725 5727 5730 5733 5736 5739 5742 5745 5748 5750 5753 5755 5759 5762 5765 5768 5772 5774 5777 5780 5782 5785 5787 5789 5791 5794
5679 5678 5679 5679 5678 5677 5677 5680 5683 5682 5682 5684 5686 5688 5690 5693 5695 5698 5700 5703 5706 5709 5711 5714 5717 5720 5723 5726 5729 5732 5735 5738 5740 5743 5746 5749 5752 5755 5759 5762 5765 5768 5771 5774 5777 5779 5781 5783 5786
5669 5667 5667 5667 5667 5666 5666 5669 5670 5670 5671 5673 5674 5676 5678 5681 5684 5686 5689 5692 5695 5697 5700 5702 5706 5709 5712 5715 5718 5721 5724 5727 5730 5733 5736 5739 5742 5745 5749 5752 5756 5759 5762 5765 5768 5771 5773 5775 5777
5658 5656 5656 5656 5656 5655 5656 5657 5659 5659 5659 5661 5663 5665 5667 5669 5672 5674 5678 5680 5683 5685 5688 5691 5694 5698 5701 5704 5708 5711 5714 5717 5720 5723 5726 5729 5732 5735 5739 5742 5746 5749 5753 5755 5758 5761 5764 5766 5768
5647 5646 5646 5646 5645 5645 5645 5646 5647 5647 5648 5650 5652 5654 5655 5658 5660 5663 5665 5668 5671 5674 5676 5679 5682 5686 5689 5693 5696 5699 5702 5705 5708 5712 5714 5718 5721 5724 5728 5732 5735 5739 5743 5745 5748 5751 5754 5756 5759
5638 5637 5636 5636 5635 5634 5634 5635 5637 5637 5637 5638 5640 5641 5643 5645 5648 5650 5653 5656 5658 5662 5665 5668 5670 5674 5677 5680 5683 5686 5689 5693 5696 5700 5703 5706 5709 5713 5716 5720 5724 5728 5732 5735 5738 5741 5744 5746 5749
5629 5628 5627 5626 5625 5625 5625 5624 5627 5627 5627 5627 5628 5630 5631 5633 5635 5638 5640 5643 5646 5649 5652 5655 5658 5661 5664 5667 5670 5674 5677 5681 5685 5688 5691 5694 5698 5701 5704 5708 5712 5716 5720 5724 5727 5730 5733 5736 5738
5620 5618 5617 5616 5615 5615 5614 5613 5616 5617 5616 5617 5618 5619 5620 5621 5623 5625 5627 5630 5633 5636 5639 5642 5645 5648 5651 5654 5657 5661 5664 5668 5671 5675 5678 5681 5685 5688 5692 5696 5700 5704 5708 5712 5715 5718 5721 5724 5727
5611 5610 5608 5607 5605 5604 5606 5603 5604 5606 5606 5607 5607 5607 5609 5610 5611 5613 5615 5617 5620 5622 5625 5628 5631 5634 5637 5640 5643 5647 5651 5654 5658 5661 5665 5668 5671 5675 5679 5683 5687 5691 5695 5699 5703 5706 5709 5712 5715
5602 5601 5599 5596 5595 5595 5595 5592 5594 5595 5595 5595 5596 5596 5597 5598 5599 5601 5602 5604 5606 5609 5612 5615 5618 5621 5623 5626 5630 5633 5637 5640 5644 5647 5651 5654 5658 5662 5666 5670 5674 5678 5682 5686 5689 5693 5696 5699 5702
5593 5592 5590 5588 5586 5585 5585 5583 5585 5585 5584 5584 5584 5584 5585 5586 5588 5589 5590 5591 5593 5596 5598 5601 5604 5607 5610 5612 5616 5619 5622 5626 5629 5633 5636 5640 5644 5648 5652 5656 5661 5665 5669 5673 5676 5680 5683 5686 5689
5584 5582 5581 5579 5576 5575 5574 5574 5575 5575 5574 5574 5574 5574 5574 5575 5576 5577 5578 5579 5581 5582 5585 5587 5590 5593 5596 5598 5602 5605 5608 5611 5615 5618 5622 5626 5630 5634 5638 5642 5647 5651 5655 5659 5663 5666 5669 5672 5676
5576 5573 5571 5569 5566 5564 5564 5564 5565 5565 5565 5564 5564 5563 5563 5564 5565 5565 5566 5567 5569 5570 5572 5574 5577 5579 5582 5584 5587 5590 5593 5597 5600 5604 5607 5611 5616 5620 5624 5628 5633 5637 5641 5645 5649 5652 5655 5658 5662
5568 5565 5562 5560 5558 5556 5554 5558 5556 5556 5555 5554 5553 5553 5553 5553 5554 5554 5555 5556 5557 5558 5560 5562 5564 5566 5569 5571 5574 5576 5580 5583 5586 5589 5593 5597 5601 5605 5610 5615 5619 5623 5627 5631 5634 5638 5641 5644 5647
5559 5557 5554 5552 5550 5547 5545 5550 5547 5546 5544 5544 5543 5542 5542 5542 5543 5543 5544 5544 5545 5547 5548 5550 5551 5553 5556 5558 5560 5563 5566 5569 5572 5575 5579 5583 5587 5591 5596 5601 5605 5609 5613 5616 5620 5623 5627 5630 5633